Regional Weather Roundup
Issued by NWS

Home | Current Version | Previous Version | Graphics & Text | Print | Product List | Glossary On
Versions: 1 2 3 4 5 6 7 8 9 10 11 12 13 14 15 16 17 18 19 20 21 22 23 24 25 26 27 28 29 30 31 32 33 34 35 36 37 38 39 40 41 42 43 44 45 46 47 48 49 50
000
ASUS45 KCYS 310210
RWRWY

WYOMING REGIONAL WEATHER ROUNDUP
NATIONAL WEATHER SERVICE CHEYENNE WY
800 PM MDT THU JUL 30 2015

NOTE:  "FAIR" INDICATES FEW OR NO CLOUDS BELOW 12,000 FEET
WITH NO SIGNIFICANT WEATHER AND/OR OBSTRUCTIONS TO VISIBILITY.

WYZ001-310300-
YELLOWSTONE NATIONAL PARK

CITY           SKY/WX    TMP DP  RH WIND       PRES   REMARKS
LK YELLOWSTONE   N/A     68  31  25 VRB3      30.51S
W YELLOWSTONE  NOT AVBL

$$
WYZ002>013-054>058-071-098>099-310300-
NORTHERN WYOMING

CITY           SKY/WX    TMP DP  RH WIND       PRES   REMARKS
JACKSON        FAIR      75  36  23 NW5       30.38S
CODY           FAIR      81  36  19 N3        30.28S
GREYBULL       FAIR      88  31  13 N7        30.18S
WORLAND        FAIR      83  38  20 N6        30.20F
SHERIDAN       FAIR      79  48  33 N6        30.22F
BUFFALO        FAIR      79  40  24 NW10      30.30S
GILLETTE       FAIR      81  39  22 NE3       30.24S
HULETT         FAIR      79  39  24 E3        30.25S
NEWCASTLE      FAIR      79  34  19 NE5       30.24S

$$
WYZ014>020-022>026-101>103-310300-
CENTRAL WYOMING

CITY           SKY/WX    TMP DP  RH WIND       PRES   REMARKS
BIG PINEY      FAIR      78  21  12 NE6       30.41R
PINEDALE       FAIR      75  23  14 N3        30.42S
DUBOIS         FAIR      73  23  15 NW9       30.41S
LANDER         FAIR      80  30  16 E5        30.27R
RIVERTON       FAIR      81  25  12 NE8       30.28S
CASPER         FAIR      82  23  11 N6        30.29R
DOUGLAS        FAIR      80  40  23 E10       30.28R

$$
WYZ021-027>030-104>119-310300-
SOUTHERN WYOMING

CITY           SKY/WX    TMP DP  RH WIND       PRES   REMARKS
EVANSTON       FAIR      77  21  12 N13       30.41S
KEMMERER       FAIR      73  21  14 W9        30.43S
FORT BRIDGER   CLEAR     79  19  11 N8        30.43R
ROCK SPRINGS   FAIR      77  22  13 NW5       30.37S
DIXON          FAIR      81  23  11 NW5       30.36S
RAWLINS        FAIR      79  17  10 NW7       30.38S
SARATOGA       FAIR      77  23  13 NE5       30.39F
LARAMIE        FAIR      73  39  29 SE12      30.41S
CHEYENNE       FAIR      76  42  29 NE8       30.35R
TORRINGTON     FAIR      79  49  34 E7        30.22R
PINE BLUFFS    FAIR      77  41  27 NE5       30.29S

$$


USA.gov is the U.S. government's official web portal to all federal, state and local government web resources and services.